Weather History for York, PA

Change the Weather History Date:

Tuesday, December 3, 2013

  Actual Average Record
Temperature  
Mean Temperature 42 °F -  
Max Temperature 53 °F 0 °F 71 °F (1998)
Min Temperature 30 °F - 10 °F (2002)
Degree Days  
Heating Degree Days 24    
Moisture  
Dew Point 32 °F    
Average Humidity 80    
Maximum Humidity 89    
Minimum Humidity 52    
Precipitation  
Precipitation 0.00 in - - ()
Sea Level Pressure  
Sea Level Pressure 29.95 in    
Wind  
Wind Speed 0 mph (North)    
Max Wind Speed 4 mph    
Max Gust Speed -    
Visibility 3 miles    
Events      
Averages and records for this station are not official NWS values.
T = Trace of Precipitation, MM = Missing Value Source: NWS Daily Summary

Daily Weather History Graph

Daily Weather History Graph

Search for Another Location

Airport:

Trip Planner

Search our weather history database for the weather conditions in past years. The results will help you decide how hot, cold, wet, or windy it might be!

Date:

Astronomy

Dec. 03, 2013 Rise Set
Actual Time 7:12 AM EST 4:42 PM EST
Civil Twilight 6:42 AM EST 5:12 PM EST
Nautical Twilight 6:08 AM EST 5:46 PM EST
Astronomical Twilight 5:35 AM EST 6:19 PM EST
Moon 7:39 AM EST (12/3) 5:43 PM EST (12/3)
Length of Visible Light 10h 30m
Length of Day
9h 30m
New Moon, 1% of the Moon is Illuminated
Dec 3
New Moon
Dec 9
First Quarter
Dec 17
Full
Dec 25
Last Quarter
Jan 1
New

Hourly Weather History & Observations

Time (EST) Temp. Windchill Dew Point Humidity Pressure Visibility Wind Dir Wind Speed Gust Speed Precip Events Conditions
12:09 AM 35.6 °F - 32.0 °F 87% 29.89 in 3.0 mi Calm Calm - N/A   Overcast
12:53 AM 37.0 °F - 33.1 °F 86% 29.90 in 3.0 mi Calm Calm - N/A   Overcast
1:53 AM 37.9 °F - 33.1 °F 83% 29.90 in 4.0 mi Calm Calm - N/A   Haze
2:53 AM 37.9 °F 35.5 °F 33.1 °F 83% 29.91 in 3.0 mi NW 3.5 mph - N/A   Haze
3:53 AM 37.9 °F - 33.1 °F 83% 29.91 in 3.0 mi Calm Calm - N/A   Haze
4:53 AM 37.9 °F - 33.1 °F 83% 29.91 in 3.0 mi Calm Calm - N/A   Haze
5:53 AM 37.0 °F - 33.1 °F 86% 29.92 in 3.0 mi Calm Calm - N/A   Overcast
6:53 AM 37.9 °F - 33.1 °F 83% 29.94 in 3.0 mi Calm Calm - N/A   Haze
7:42 AM 37.4 °F - 33.8 °F 87% 29.93 in 2.0 mi Calm Calm - N/A   Overcast
7:53 AM 39.0 °F - 34.0 °F 82% 29.96 in 2.0 mi Calm Calm - N/A   Haze
8:39 AM 39.2 °F - 33.8 °F 81% 29.94 in 2.5 mi Calm Calm - N/A   Haze
8:53 AM 41.0 °F - 34.0 °F 76% 29.96 in 2.5 mi Calm Calm - N/A   Haze
9:48 AM 44.6 °F - 35.6 °F 71% 29.95 in 2.0 mi Calm Calm - N/A   Haze
9:53 AM 45.0 °F - 36.0 °F 71% 29.96 in 2.0 mi Calm Calm - N/A   Haze
10:00 AM 44.6 °F - 35.6 °F 71% 29.95 in 2.5 mi Calm Calm - N/A   Haze
10:14 AM 46.4 °F - 35.6 °F 66% 29.95 in 2.0 mi Calm Calm - N/A   Haze
10:26 AM 46.4 °F - 35.6 °F 66% 29.95 in 2.5 mi Calm Calm - N/A   Haze
10:53 AM 48.0 °F - 35.1 °F 61% 29.96 in 3.0 mi North 3.5 mph - N/A   Haze
11:53 AM 53.1 °F - 36.0 °F 52% 29.94 in 4.0 mi Calm Calm - N/A   Haze
3:53 PM - - - N/A% 29.93 in - North - - N/A   Unknown
4:53 PM 42.1 °F - 32.0 °F 67% 29.94 in - Calm Calm - N/A   Unknown
5:53 PM 36.0 °F - 30.9 °F 82% 29.95 in 5.0 mi Calm Calm - N/A   Haze
6:53 PM 34.0 °F - 28.9 °F 82% 29.96 in 4.0 mi Calm Calm - N/A   Haze
7:53 PM 30.9 °F - 27.0 °F 85% 29.97 in 2.5 mi Calm Calm - N/A   Clear
8:03 PM 30.9 °F - 27.0 °F 85% 29.97 in 3.0 mi Calm Calm - N/A   Clear
8:41 PM 32.0 °F - 28.0 °F 85% 29.97 in 2.5 mi Calm Calm - N/A   Clear
8:53 PM 30.9 °F - 27.0 °F 85% 29.97 in 3.0 mi Calm Calm - N/A   Clear
9:34 PM 30.0 °F - 25.0 °F 82% 29.99 in 2.5 mi Calm Calm - N/A   Haze
9:53 PM 30.9 °F - 28.0 °F 89% 29.99 in 2.5 mi Calm Calm - N/A   Clear
10:20 PM 30.9 °F - 28.0 °F 89% 30.00 in 3.0 mi Calm Calm - N/A   Clear
10:53 PM 33.1 °F - 28.9 °F 85% 30.00 in 3.0 mi Calm Calm - N/A   Clear
11:44 PM 33.1 °F 30.0 °F 28.9 °F 85% 29.97 in 2.5 mi East 3.5 mph - N/A   Clear
11:53 PM 33.1 °F - 28.9 °F 85% 29.98 in 2.5 mi Calm Calm - N/A   Clear